Location: Ch�tillon
(48.8024°N, 2.2935°E)
Time: 09:08:20
(UTC+00:00)

LO-87 - Pass Details

Date: 28 June 2022
Orbit: 451 x 466 km, 97.4° (Epoch: 09 August)

Event Time Altitude Azimuth Distance (km) Brightness Sun altitude
Exits shadow 23:27:37 49° 193° (SSW) 604 ? -17.7°
Maximum altitude 23:28:23 70° 258° (WSW) 496 ? -17.7°
Drops below altitude 10° 23:31:52 10° 343° (NNW) 1,623 ? -17.8°
Sets 23:33:56 0° 346° (NNW) 2,508 ? -17.8°
